RYR91AC LICT-LIBD

Flight info

Callsign RYR91AC
Flight time 0h 52m
Altitude 36000
Route PAL DCT ROSAS DCT AMANO DCT NAXES DCT VARAL DCT POLIT DCT KUTID DCT VEGAN DCT BUMOK
Aircraft B38M/M-SDE1FGHILORVWXY/HB1

Departure

Time 2026-05-04 13:44
Airport Vincenzo Florio Airport Trapani-Birgi (LICT)

Arrival

Time 2026-05-04 14:36
Airport Bari Karol Wojtyła International Airport (LIBD)
Time Latitude Longitude Altitude Speed Heading
2026-05-04 13:20 37.90244 12.49659 32 ft 0 kts 261°
2026-05-04 13:36 37.90243 12.49656 32 ft 2 kts 261°
2026-05-04 13:37 37.90247 12.49633 32 ft 4 kts 302°
2026-05-04 13:37 37.90278 12.49612 33 ft 7 kts 349°
2026-05-04 13:37 37.90307 12.49645 33 ft 7 kts 84°
2026-05-04 13:37 37.90302 12.49692 33 ft 8 kts 92°
2026-05-04 13:38 37.90352 12.49729 35 ft 7 kts 330°
2026-05-04 13:38 37.90387 12.49681 35 ft 8 kts 307°
2026-05-04 13:38 37.90437 12.49671 37 ft 8 kts 28°
2026-05-04 13:38 37.90484 12.49715 38 ft 9 kts 37°
2026-05-04 13:39 37.90544 12.49771 38 ft 12 kts 37°
2026-05-04 13:39 37.90619 12.49844 39 ft 13 kts 37°
2026-05-04 13:39 37.90683 12.49896 40 ft 12 kts 10°
2026-05-04 13:39 37.90753 12.49836 40 ft 14 kts 308°
2026-05-04 13:40 37.90815 12.49734 41 ft 16 kts 308°
2026-05-04 13:40 37.90894 12.49606 38 ft 21 kts 308°
2026-05-04 13:40 37.90996 12.49441 36 ft 26 kts 307°
2026-05-04 13:40 37.91118 12.49244 31 ft 30 kts 308°
2026-05-04 13:41 37.91250 12.49029 30 ft 32 kts 308°
2026-05-04 13:41 37.91390 12.48802 31 ft 34 kts 308°
2026-05-04 13:41 37.91539 12.48561 29 ft 36 kts 308°
2026-05-04 13:42 37.91869 12.48024 26 ft 39 kts 308°
2026-05-04 13:42 37.91970 12.47861 24 ft 14 kts 308°
2026-05-04 13:42 37.92014 12.47765 25 ft 13 kts 268°
2026-05-04 13:42 37.91952 12.47676 24 ft 15 kts 226°
2026-05-04 13:43 37.91908 12.47615 24 ft 6 kts 217°
2026-05-04 13:43 37.91878 12.47602 23 ft 1 kts 153°
2026-05-04 13:43 37.91872 12.47612 24 ft 3 kts 131°
2026-05-04 13:43 37.91852 12.47643 23 ft 7 kts 129°
2026-05-04 13:44 37.91796 12.47732 20 ft 30 kts 128°
2026-05-04 13:44 37.91488 12.48232 23 ft 111 kts 128°
2026-05-04 13:44 37.90877 12.49229 39 ft 172 kts 128°
2026-05-04 13:44 37.90143 12.50487 766 ft 181 kts 132°
2026-05-04 13:45 37.89322 12.51710 1752 ft 187 kts 134°
2026-05-04 13:45 37.88607 12.52812 2356 ft 208 kts 131°
2026-05-04 13:45 37.88361 12.53209 2514 ft 216 kts 131°
2026-05-04 13:45 37.87416 12.54768 3358 ft 230 kts 132°
2026-05-04 13:46 37.86413 12.56437 4124 ft 248 kts 131°
2026-05-04 13:46 37.85338 12.58224 4898 ft 262 kts 129°
2026-05-04 13:46 37.84232 12.60081 5636 ft 273 kts 128°
2026-05-04 13:46 37.83076 12.62029 6494 ft 278 kts 127°
2026-05-04 13:47 37.81905 12.63997 7393 ft 283 kts 127°
2026-05-04 13:47 37.80704 12.66014 8182 ft 291 kts 127°
2026-05-04 13:47 37.79483 12.68064 9116 ft 295 kts 127°
2026-05-04 13:47 37.78226 12.70171 9914 ft 305 kts 128°
2026-05-04 13:48 37.76924 12.72353 10592 ft 318 kts 127°
2026-05-04 13:48 37.75553 12.74648 11117 ft 335 kts 128°
2026-05-04 13:48 37.74131 12.77030 11847 ft 342 kts 128°
2026-05-04 13:48 37.72715 12.79397 12773 ft 345 kts 128°
2026-05-04 13:49 37.71250 12.81845 13463 ft 354 kts 128°
2026-05-04 13:49 37.69762 12.84330 14267 ft 357 kts 128°
2026-05-04 13:49 37.68454 12.87023 14899 ft 363 kts 110°
2026-05-04 13:49 37.67972 12.90131 15651 ft 364 kts 88°
2026-05-04 13:50 37.68409 12.93263 16252 ft 364 kts 66°
2026-05-04 13:50 37.69703 12.95986 16893 ft 362 kts 45°
2026-05-04 13:50 37.71634 12.97990 17486 ft 359 kts 25°
2026-05-04 13:50 37.73920 12.99086 18050 ft 357 kts
2026-05-04 13:51 37.76380 12.99546 18578 ft 359 kts
2026-05-04 13:51 37.78866 12.99950 19064 ft 360 kts
2026-05-04 13:51 37.81348 13.00448 19087 ft 367 kts
2026-05-04 13:51 37.83823 13.01276 19588 ft 367 kts 11°
2026-05-04 13:52 37.88502 13.04082 20548 ft 379 kts 27°
2026-05-04 13:52 37.90737 13.05886 20986 ft 383 kts 29°
2026-05-04 13:52 37.92910 13.07786 21430 ft 386 kts 31°
2026-05-04 13:53 37.95090 13.09787 21882 ft 388 kts 32°
2026-05-04 13:53 37.97268 13.11834 22293 ft 391 kts 32°
2026-05-04 13:53 37.99446 13.13907 22694 ft 393 kts 32°
2026-05-04 13:54 38.03933 13.17829 23496 ft 388 kts 18°
2026-05-04 13:54 38.06444 13.19070 23806 ft 387 kts 13°
2026-05-04 13:54 38.11627 13.21014 24363 ft 394 kts 17°
2026-05-04 13:55 38.14128 13.22309 24697 ft 393 kts 15°
2026-05-04 13:55 38.19296 13.24703 25211 ft 397 kts 14°
2026-05-04 13:55 38.21904 13.25872 25477 ft 398 kts 14°
2026-05-04 13:56 38.24523 13.27034 25728 ft 400 kts 13°
2026-05-04 13:56 38.27157 13.28198 25999 ft 401 kts 13°
2026-05-04 13:56 38.32454 13.30536 26590 ft 404 kts 13°
2026-05-04 13:57 38.35118 13.31713 26864 ft 406 kts 13°
2026-05-04 13:57 38.37792 13.32895 27146 ft 408 kts 13°
2026-05-04 13:58 38.45847 13.36462 27862 ft 412 kts 13°
2026-05-04 13:58 38.51283 13.38874 28317 ft 415 kts 13°
2026-05-04 13:58 38.54016 13.40088 28532 ft 416 kts 13°
2026-05-04 13:59 38.56754 13.41305 28735 ft 417 kts 13°
2026-05-04 13:59 38.59500 13.42526 28937 ft 419 kts 13°
2026-05-04 13:59 38.64972 13.44964 29333 ft 420 kts 13°
2026-05-04 14:00 38.67736 13.46197 29505 ft 421 kts 13°
2026-05-04 14:00 38.73285 13.48674 29840 ft 423 kts 13°
2026-05-04 14:00 38.76067 13.49918 30008 ft 424 kts 13°
2026-05-04 14:01 38.78851 13.51165 30186 ft 424 kts 13°
2026-05-04 14:01 38.81640 13.52412 30304 ft 425 kts 13°
2026-05-04 14:01 38.87204 13.54901 30513 ft 427 kts 13°
2026-05-04 14:02 38.90012 13.56156 30627 ft 427 kts 13°
2026-05-04 14:02 38.92821 13.57413 30742 ft 428 kts 13°
2026-05-04 14:02 38.95632 13.58672 30849 ft 428 kts 13°
2026-05-04 14:02 38.98448 13.59934 30956 ft 429 kts 13°
2026-05-04 14:03 39.01263 13.61197 31083 ft 429 kts 12°
2026-05-04 14:03 39.06912 13.63734 31283 ft 431 kts 12°
2026-05-04 14:03 39.09742 13.65007 31398 ft 431 kts 12°
2026-05-04 14:04 39.15369 13.67540 31616 ft 432 kts 12°
2026-05-04 14:04 39.18209 13.68821 31759 ft 432 kts 12°
2026-05-04 14:04 39.21051 13.70103 31893 ft 433 kts 12°
2026-05-04 14:05 39.26747 13.72677 32181 ft 434 kts 11°
2026-05-04 14:05 39.29598 13.73967 32319 ft 435 kts 11°
2026-05-04 14:05 39.32459 13.75262 32468 ft 436 kts 11°
2026-05-04 14:06 39.35321 13.76559 32618 ft 437 kts 11°
2026-05-04 14:06 39.38154 13.77844 32774 ft 438 kts 11°
2026-05-04 14:06 39.40993 13.79343 32939 ft 449 kts 21°
2026-05-04 14:06 39.43528 13.81798 33262 ft 465 kts 36°
2026-05-04 14:07 39.45760 13.84850 33501 ft 468 kts 38°
2026-05-04 14:07 39.47994 13.87919 33780 ft 468 kts 38°
2026-05-04 14:07 39.50205 13.91002 34172 ft 466 kts 38°
2026-05-04 14:07 39.52400 13.94088 34472 ft 465 kts 39°
2026-05-04 14:08 39.54586 13.97174 34746 ft 465 kts 39°
2026-05-04 14:08 39.56768 14.00258 35022 ft 464 kts 39°
2026-05-04 14:08 39.58913 14.03295 35284 ft 463 kts 39°
2026-05-04 14:08 39.61086 14.06375 35537 ft 462 kts 39°
2026-05-04 14:09 39.65419 14.12525 36028 ft 461 kts 39°
2026-05-04 14:09 39.67585 14.15603 36156 ft 462 kts 39°
2026-05-04 14:10 39.71904 14.21750 36150 ft 459 kts 39°
2026-05-04 14:10 39.76191 14.27865 36131 ft 456 kts 39°
2026-05-04 14:11 39.80428 14.33921 36137 ft 456 kts 39°
2026-05-04 14:11 39.86829 14.43090 36137 ft 456 kts 39°
2026-05-04 14:12 39.91087 14.49218 36137 ft 456 kts 40°
2026-05-04 14:13 39.97438 14.58383 36136 ft 456 kts 40°
2026-05-04 14:13 40.01685 14.64523 36131 ft 457 kts 40°
2026-05-04 14:13 40.03804 14.67585 35489 ft 455 kts 40°
2026-05-04 14:14 40.05945 14.70682 34521 ft 463 kts 40°
2026-05-04 14:14 40.10295 14.76986 32801 ft 469 kts 40°
2026-05-04 14:14 40.12468 14.80141 32139 ft 466 kts 40°
2026-05-04 14:15 40.16848 14.86267 30695 ft 464 kts 38°
2026-05-04 14:15 40.21263 14.92347 29478 ft 456 kts 40°
2026-05-04 14:16 40.25578 14.98315 28305 ft 447 kts 41°
2026-05-04 14:16 40.27706 15.01261 27722 ft 443 kts 41°
2026-05-04 14:17 40.31915 15.07099 26563 ft 438 kts 41°
2026-05-04 14:17 40.33998 15.09992 26001 ft 435 kts 41°
2026-05-04 14:17 40.38129 15.15739 24879 ft 431 kts 43°
2026-05-04 14:18 40.40152 15.18556 24335 ft 429 kts 43°
2026-05-04 14:18 40.44253 15.24268 22666 ft 429 kts 43°
2026-05-04 14:19 40.48290 15.29900 21690 ft 419 kts 44°
2026-05-04 14:19 40.50276 15.32674 21190 ft 415 kts 44°
2026-05-04 14:19 40.52245 15.35426 20673 ft 412 kts 44°
2026-05-04 14:19 40.54195 15.38156 20171 ft 408 kts 45°
2026-05-04 14:20 40.56104 15.40900 19515 ft 408 kts 50°
2026-05-04 14:20 40.57676 15.43937 18727 ft 403 kts 54°
2026-05-04 14:20 40.59267 15.46944 17885 ft 397 kts 54°
2026-05-04 14:21 40.62417 15.52770 16559 ft 387 kts 53°
2026-05-04 14:21 40.63982 15.55637 16105 ft 385 kts 53°
2026-05-04 14:21 40.65536 15.58483 15668 ft 381 kts 53°
2026-05-04 14:21 40.67077 15.61305 15235 ft 378 kts 53°
2026-05-04 14:22 40.68606 15.64106 14818 ft 375 kts 53°
2026-05-04 14:22 40.70101 15.66848 14394 ft 372 kts 53°
2026-05-04 14:22 40.71603 15.69604 13968 ft 369 kts 53°
2026-05-04 14:22 40.73095 15.72345 13490 ft 366 kts 53°
2026-05-04 14:23 40.76034 15.77752 12640 ft 359 kts 53°
2026-05-04 14:23 40.77478 15.80411 12213 ft 355 kts 53°
2026-05-04 14:23 40.78908 15.83047 11810 ft 352 kts 53°
2026-05-04 14:24 40.80326 15.85664 11401 ft 349 kts 53°
2026-05-04 14:24 40.81721 15.88238 11170 ft 340 kts 53°
2026-05-04 14:24 40.83076 15.90743 11023 ft 330 kts 53°
2026-05-04 14:24 40.84356 15.93112 10851 ft 313 kts 53°
2026-05-04 14:25 40.85588 15.95390 10715 ft 297 kts 53°
2026-05-04 14:25 40.87868 15.99616 10453 ft 271 kts 54°
2026-05-04 14:25 40.88949 16.01619 10325 ft 265 kts 54°
2026-05-04 14:26 40.90029 16.03625 10180 ft 272 kts 54°
2026-05-04 14:26 40.91139 16.05685 9892 ft 277 kts 54°
2026-05-04 14:26 40.92259 16.07766 9593 ft 277 kts 54°
2026-05-04 14:26 40.93359 16.09814 9454 ft 269 kts 54°
2026-05-04 14:27 40.94410 16.11768 9335 ft 260 kts 54°
2026-05-04 14:27 40.95440 16.13685 9214 ft 251 kts 54°
2026-05-04 14:27 40.96425 16.15539 9145 ft 243 kts 57°
2026-05-04 14:27 40.97136 16.17569 8913 ft 244 kts 69°
2026-05-04 14:28 40.97734 16.19683 8612 ft 246 kts 69°
2026-05-04 14:28 40.98359 16.21791 8290 ft 246 kts 67°
2026-05-04 14:28 40.99002 16.23894 7974 ft 246 kts 68°
2026-05-04 14:28 40.99629 16.26004 7668 ft 247 kts 68°
2026-05-04 14:29 41.00856 16.30238 7015 ft 249 kts 69°
2026-05-04 14:29 41.02091 16.34560 6350 ft 253 kts 69°
2026-05-04 14:30 41.02712 16.36745 6002 ft 255 kts 69°
2026-05-04 14:30 41.03338 16.38948 5664 ft 256 kts 69°
2026-05-04 14:30 41.04605 16.43413 4987 ft 261 kts 69°
2026-05-04 14:31 41.05227 16.45607 4691 ft 254 kts 69°
2026-05-04 14:31 41.06439 16.49879 3989 ft 241 kts 69°
2026-05-04 14:32 41.07589 16.53942 3361 ft 230 kts 69°
2026-05-04 14:32 41.07957 16.55242 3161 ft 226 kts 68°
2026-05-04 14:32 41.08492 16.57133 2868 ft 210 kts 68°
2026-05-04 14:32 41.08977 16.58845 2611 ft 186 kts 68°
2026-05-04 14:33 41.09413 16.60386 2369 ft 170 kts 69°
2026-05-04 14:33 41.09804 16.61767 2156 ft 152 kts 69°
2026-05-04 14:33 41.10296 16.63496 1897 ft 149 kts 69°
2026-05-04 14:33 41.10657 16.64771 1685 ft 147 kts 70°
2026-05-04 14:34 41.10898 16.65624 1538 ft 145 kts 70°
2026-05-04 14:34 41.11239 16.66827 1369 ft 139 kts 69°
2026-05-04 14:34 41.11577 16.68009 1175 ft 137 kts 69°
2026-05-04 14:34 41.11912 16.69188 1017 ft 138 kts 69°
2026-05-04 14:35 41.12243 16.70375 818 ft 136 kts 70°
2026-05-04 14:35 41.12593 16.71569 617 ft 140 kts 70°
2026-05-04 14:35 41.13029 16.73140 357 ft 136 kts 71°
2026-05-04 14:35 41.13248 16.73927 242 ft 134 kts 70°
2026-05-04 14:36 41.13566 16.75046 141 ft 120 kts 70°
2026-05-04 14:36 41.13779 16.75801 140 ft 59 kts 69°
2026-05-04 14:36 41.13905 16.76247 132 ft 52 kts 69°
2026-05-04 14:36 41.13986 16.76530 127 ft 15 kts 69°
2026-05-04 14:37 41.13992 16.76651 127 ft 11 kts 111°
2026-05-04 14:37 41.13965 16.76729 125 ft 6 kts 115°
2026-05-04 14:37 41.13958 16.76751 127 ft 1 kts 115°
2026-05-04 14:37 41.13957 16.76751 127 ft 0 kts 115°
2026-05-04 14:38 41.13955 16.76757 124 ft 2 kts 115°
2026-05-04 14:38 41.13942 16.76789 128 ft 6 kts 129°
2026-05-04 14:38 41.13895 16.76809 128 ft 9 kts 196°
2026-05-04 14:39 41.13876 16.76790 125 ft 0 kts 229°
2026-05-04 14:39 41.13870 16.76780 127 ft 5 kts 236°
2026-05-04 14:39 41.13846 16.76697 133 ft 11 kts 249°
2026-05-04 14:40 41.13785 16.76557 138 ft 8 kts 195°
2026-05-04 14:40 41.13735 16.76591 138 ft 10 kts 111°
2026-05-04 14:40 41.13743 16.76661 138 ft 5 kts 70°
2026-05-04 14:40 41.13743 16.76685 138 ft 0 kts 124°
2026-05-04 14:41 41.13739 16.76689 138 ft 2 kts 140°
2026-05-04 14:41 41.13714 16.76710 138 ft 6 kts 157°
2026-05-04 14:41 41.13670 16.76702 139 ft 0 kts 203°